Wind_Speed
30 32 34 35 36 36 32 28 28 28 28 28 29 29 29 28 26 22 18 14 12 10 8 9 11 11 12 14 16 19 15 12 15 17 19 19 21 25 23 21 20 19 26 31 32 34 37 38 32 28 40 50 49 53 57 57 53 51 49 34 22 29 29 28 35 28 22 31 35 36 40 39 43 47 41 35 38 44 45 41 33 25 20 18 19 23 28
29 31 33 35 36 36 33 29 27 26 26 26 26 26 26 25 24 22 18 14 11 10 9 11 12 12 15 20 22 21 16 12 14 16 17 16 21 24 20 18 19 18 23 28 29 33 36 34 29 29 41 44 43 51 59 57 53 51 49 38 28 32 32 30 36 32 25 29 35 38 41 43 44 46 45 40 35 39 42 34 28 29 26 20 19 21 25
28 30 32 35 36 36 34 31 28 25 24 24 24 23 23 23 23 22 21 19 17 16 14 13 14 16 20 24 24 23 20 16 15 17 16 16 19 20 17 18 18 14 19 24 26 32 36 33 29 31 38 39 39 49 57 56 53 50 46 36 29 32 35 33 36 38 35 34 38 42 44 45 44 43 44 44 36 30 33 32 29 33 32 23 18 19 25
26 29 31 33 35 36 34 33 30 26 22 22 22 22 22 22 21 20 20 21 20 19 18 17 18 20 22 22 21 20 21 18 15 16 16 15 17 17 17 18 17 13 15 22 24 30 35 34 30 30 36 40 43 49 53 54 55 51 43 37 33 34 35 36 36 35 34 32 34 38 41 41 41 39 39 44 43 32 27 32 35 35 33 29 23 21 27
24 27 30 32 34 35 35 33 31 27 21 19 20 21 20 20 20 19 18 18 18 17 16 16 16 17 18 17 16 17 17 17 16 16 15 16 17 18 18 17 15 14 15 18 22 29 35 34 28 28 36 43 47 49 48 50 54 52 45 42 42 39 35 36 37 29 22 23 27 31 35 35 35 37 38 40 47 43 32 32 35 33 29 29 28 29 33
23 26 28 30 33 34 35 34 30 28 23 18 17 18 19 19 19 19 17 16 16 14 12 12 12 12 13 13 12 11 13 15 18 19 17 15 16 17 17 16 15 16 15 15 21 28 35 34 27 28 37 43 46 45 44 48 52 50 47 46 45 42 38 36 34 25 15 15 18 21 29 32 32 38 41 40 43 46 42 34 28 29 31 28 25 31 36
21 24 26 29 32 33 35 34 31 28 25 21 17 15 16 18 18 18 17 16 15 13 11 9 7 7 8 8 8 7 9 14 19 21 19 16 16 16 17 17 17 18 16 14 19 26 33 35 31 31 35 39 42 41 42 47 49 48 48 48 45 43 41 36 29 21 17 16 14 15 21 27 30 34 38 40 39 42 46 40 27 27 34 31 24 27 32
20 23 25 28 30 32 34 33 31 28 27 26 23 16 13 15 17 18 18 16 15 14 12 9 8 7 6 6 7 8 10 15 19 21 21 21 17 14 15 18 18 18 17 16 18 22 28 33 34 34 33 34 36 38 41 45 46 45 46 47 47 43 41 37 27 19 19 19 14 15 19 22 25 28 32 37 39 41 46 47 39 35 33 31 30 30 27
18 21 24 26 29 31 33 32 29 28 26 27 27 21 13 12 15 17 18 17 16 14 13 11 11 10 9 8 10 12 13 15 18 20 22 22 17 12 16 20 20 19 18 17 17 16 19 25 29 29 28 30 33 35 40 44 44 45 46 46 44 39 37 37 31 24 26 25 16 14 18 19 22 25 31 36 40 41 44 46 48 47 40 35 36 35 32
17 20 22 25 27 30 31 30 28 28 27 25 25 22 16 11 12 14 17 17 17 15 13 12 13 12 11 11 12 14 13 14 16 19 20 19 17 17 20 22 22 22 21 19 18 14 14 19 22 20 20 26 32 34 36 39 39 41 43 40 37 35 36 35 33 31 32 29 21 17 19 21 23 27 30 32 36 40 42 43 46 48 47 43 40 35 35
16 18 20 23 25 28 30 29 27 27 27 24 22 22 19 13 10 11 14 16 17 15 13 13 14 14 13 12 13 14 12 12 15 17 18 18 19 20 22 22 21 19 19 21 21 17 15 17 18 16 16 22 30 33 34 35 34 34 35 33 32 35 36 34 32 32 31 28 24 25 28 29 30 31 29 27 29 34 38 41 42 44 46 47 43 36 35
14 16 19 21 23 26 28 27 26 26 27 25 22 21 20 17 12 9 10 13 15 15 13 12 12 13 13 13 13 13 12 12 14 15 16 17 19 18 18 18 17 14 18 25 24 20 19 17 15 16 18 21 26 30 31 31 32 32 32 31 33 35 34 32 31 30 27 27 29 31 33 33 32 31 30 29 29 30 32 34 34 36 40 45 47 44 42
12 14 17 19 22 24 26 26 24 24 25 25 23 22 21 18 15 11 9 10 13 13 12 10 10 11 12 12 12 12 11 12 13 14 15 16 17 16 14 14 14 14 21 27 22 21 22 17 13 15 17 19 24 27 28 29 30 31 31 31 32 32 31 31 31 28 25 28 33 33 31 31 31 28 27 29 32 33 33 35 35 35 37 41 45 46 45
11 12 15 17 20 22 24 24 23 22 23 24 22 21 20 19 17 15 11 10 11 12 11 10 9 8 10 11 11 11 11 12 13 13 14 15 14 13 12 14 15 16 21 23 18 19 22 18 16 17 15 16 21 25 27 27 27 28 28 29 30 30 30 30 31 29 27 28 31 32 29 29 30 29 26 26 29 32 34 37 39 39 37 37 41 44 44
10 11 13 15 17 20 22 23 23 21 20 22 22 21 20 20 19 17 14 11 11 11 11 10 9 8 8 9 10 10 10 12 13 13 14 14 13 12 13 14 15 17 21 21 17 18 21 19 19 19 15 13 16 19 23 26 27 28 27 28 29 29 29 30 28 27 28 28 28 30 30 28 26 27 26 24 26 31 33 34 37 39 38 38 40 42 42
9 10 12 13 15 18 19 21 22 20 18 19 21 20 19 20 20 19 17 14 11 11 11 11 10 9 8 9 9 9 9 11 13 13 15 14 12 12 13 14 15 17 19 18 15 15 18 19 18 17 15 14 13 14 18 22 25 27 27 27 29 29 29 28 26 26 28 30 30 30 29 26 23 23 25 25 26 30 31 31 33 35 36 37 39 40 40
9 9 10 12 13 16 17 19 20 20 18 17 18 18 17 18 20 20 19 17 14 12 11 10 10 9 8 8 8 9 9 9 12 14 15 14 13 12 12 13 14 15 17 17 15 14 17 18 19 17 16 15 14 13 14 16 19 23 25 25 26 28 28 28 27 27 28 30 30 28 27 26 23 22 23 25 26 28 29 30 31 32 34 36 37 38 37
8 9 10 10 12 14 15 16 18 19 18 15 14 14 15 16 19 19 19 18 16 14 12 10 9 9 8 8 8 9 9 9 10 12 14 14 13 12 11 12 12 12 14 16 15 15 19 20 18 17 16 15 15 14 13 13 15 18 21 22 23 24 26 27 27 27 28 29 29 27 25 24 22 21 22 24 25 27 29 30 31 31 33 34 34 34 34
8 9 10 10 10 12 14 15 16 17 18 16 12 10 12 13 16 17 18 17 17 15 14 12 10 8 7 8 8 8 9 9 9 11 14 14 12 11 12 12 11 10 12 15 15 16 19 20 18 17 16 15 15 15 14 13 13 14 16 19 21 22 24 27 27 27 27 28 28 28 26 23 21 22 23 23 24 25 27 28 29 30 30 31 31 32 33
8 9 10 9 9 11 12 13 14 15 17 17 12 8 9 10 12 15 17 17 15 14 14 13 12 10 8 7 7 7 8 9 9 10 11 10 9 11 13 12 11 10 12 14 15 17 19 20 18 17 16 16 16 15 14 13 13 13 14 16 18 20 21 23 24 25 26 26 28 30 28 23 20 21 22 22 24 25 25 26 28 29 29 28 27 29 31
9 9 10 10 9 9 11 11 12 13 15 16 13 9 7 9 10 13 16 17 14 12 12 12 12 11 10 7 6 6 7 7 8 8 7 6 8 11 11 11 11 11 12 14 15 17 19 19 18 18 18 18 17 15 14 14 13 13 14 16 17 18 19 19 20 22 24 25 27 30 29 24 21 21 21 22 23 24 24 26 27 28 28 28 27 26 26
10 9 10 10 9 9 9 10 11 11 13 15 15 10 8 8 9 11 14 15 12 10 11 11 10 10 10 8 6 5 5 5 5 5 4 4 7 8 8 9 11 11 12 14 15 17 19 19 19 20 19 18 19 18 16 15 15 14 15 16 17 18 18 18 19 20 22 24 26 27 27 26 24 21 20 21 23 24 26 28 27 27 27 27 28 29 27
11 9 10 11 10 8 8 9 9 9 10 13 14 12 8 8 9 10 11 12 11 8 8 10 10 9 8 7 6 5 4 3 3 3 3 4 6 6 7 7 8 10 12 14 15 17 18 18 19 20 19 17 18 19 18 17 16 16 16 17 17 17 17 18 18 18 20 24 25 25 25 26 26 23 21 22 23 25 28 29 28 27 27 26 27 29 29
12 9 10 12 11 9 8 8 8 7 8 10 12 13 9 7 8 8 9 10 10 7 6 8 9 8 6 6 6 5 4 4 3 3 4 5 4 5 6 5 8 11 13 14 15 16 17 17 19 22 21 18 19 20 20 19 18 18 18 18 17 16 16 17 16 17 19 21 23 23 24 25 26 24 22 22 23 25 27 28 27 27 27 27 27 26 27
12 10 10 12 12 10 9 8 8 7 7 7 10 12 11 8 7 8 8 8 8 6 4 5 8 8 7 6 6 5 4 4 3 2 3 3 2 4 5 6 9 11 12 12 13 14 14 15 18 21 21 19 20 22 22 21 20 19 19 20 19 17 16 17 18 18 18 19 21 22 22 23 25 26 25 24 24 25 26 27 28 27 27 28 28 26 26
12 11 10 12 13 12 10 9 8 7 6 6 7 10 11 9 8 7 7 6 7 6 4 3 4 7 7 6 5 4 4 4 3 2 1 0 0 3 6 7 9 10 10 11 12 13 14 15 18 19 19 19 20 22 23 22 21 21 20 21 20 19 18 18 18 18 18 20 22 22 22 22 24 27 27 26 25 26 26 27 27 27 27 27 27 26 25
13 12 11 12 13 13 11 10 9 7 6 5 5 7 9 9 8 7 6 6 6 6 6 4 4 5 6 5 3 3 2 2 2 2 2 1 1 3 6 8 9 9 10 11 12 13 14 15 17 18 18 18 19 20 21 22 21 21 21 21 20 20 20 20 20 20 21 21 21 22 24 25 24 23 24 26 27 27 27 27 27 27 27 26 26 25 24
13 12 11 12 14 14 13 12 10 8 7 6 5 4 6 8 7 6 5 5 6 6 6 6 5 4 4 4 2 1 1 0 2 3 3 3 3 4 5 7 10 12 12 12 13 14 15 15 16 17 17 17 18 19 21 21 21 21 21 21 21 20 21 22 22 22 22 20 19 22 25 25 24 23 23 25 27 27 27 27 28 28 28 27 25 23 23
13 13 12 12 14 15 14 13 12 10 8 7 6 4 5 6 6 5 4 4 5 5 5 5 5 4 3 3 2 1 1 1 2 4 5 6 6 8 9 7 8 12 15 16 16 16 16 15 15 15 17 17 18 20 21 20 20 20 20 21 22 22 22 22 23 23 23 22 22 23 23 23 24 25 24 24 26 27 27 27 27 28 29 28 26 24 23
14 13 12 12 14 16 16 14 13 11 10 9 7 5 4 4 4 4 4 3 4 4 4 5 4 3 2 3 2 1 0 1 3 4 6 7 7 9 10 7 4 7 12 16 18 17 17 17 16 15 16 16 16 18 20 20 20 20 20 21 23 24 23 23 23 23 24 24 24 23 22 23 24 23 22 22 25 26 27 26 26 27 28 27 27 26 24
14 14 13 13 14 16 17 15 14 13 11 10 9 7 4 4 4 3 3 3 3 3 4 4 4 4 3 2 2 2 2 3 4 5 6 6 6 6 5 3 1 4 8 13 16 16 16 17 17 17 17 17 16 16 18 19 20 19 18 20 22 22 21 22 23 24 24 24 23 23 22 21 21 21 20 21 23 24 25 25 24 25 26 26 26 26 25
15 14 13 13 14 16 18 17 15 14 13 12 10 9 6 4 3 3 2 2 2 3 3 3 4 3 3 3 3 3 4 4 4 4 4 5 4 2 1 2 3 5 8 11 13 13 14 14 15 16 16 18 17 16 17 19 20 18 17 18 20 20 20 21 23 24 24 22 21 19 19 19 18 19 20 21 21 21 22 21 21 23 24 24 24 25 24
15 15 13 13 14 16 18 18 17 16 15 13 12 11 9 6 4 4 3 1 1 2 3 3 3 3 3 3 4 5 6 5 3 2 3 3 1 4 5 4 4 6 8 10 10 11 12 12 12 12 13 14 16 16 16 18 18 16 15 17 19 20 20 21 22 22 22 20 19 18 18 18 17 18 19 21 21 20 20 20 20 22 22 23 24 24 24
15 15 14 13 14 16 18 19 19 18 17 15 14 13 11 9 7 6 5 3 1 2 3 3 3 3 3 2 2 3 5 5 4 4 5 3 2 7 9 6 5 7 7 7 7 9 10 11 11 11 11 12 13 14 15 16 16 15 14 15 16 18 18 19 21 21 20 19 19 18 18 17 16 16 16 17 18 19 19 19 20 21 22 23 24 24 24
16 15 15 14 14 16 19 20 20 19 18 17 16 14 13 12 10 8 6 4 2 2 3 4 4 4 4 2 1 3 5 6 5 4 4 5 4 7 9 8 7 7 7 6 6 7 9 10 11 12 13 12 12 13 13 12 12 14 14 12 13 16 17 19 20 20 19 19 19 18 18 16 14 13 12 12 14 17 17 17 18 19 20 22 23 24 24
16 16 15 14 14 16 19 21 21 20 19 19 18 16 15 14 12 11 9 7 5 3 3 4 4 4 5 4 2 3 3 3 3 2 2 4 6 6 7 8 8 8 7 7 7 7 7 9 12 13 12 11 11 12 13 11 10 12 12 10 12 17 19 19 19 18 18 18 18 18 18 16 12 10 10 11 13 15 15 15 16 16 17 19 21 22 23
17 16 16 15 15 16 18 21 22 21 20 20 19 18 17 16 15 14 12 10 8 6 4 4 5 5 5 4 2 1 1 1 1 2 2 3 5 6 6 6 7 8 7 8 8 7 7 11 13 13 12 11 10 10 12 13 13 13 12 11 13 17 19 20 19 18 18 18 18 18 18 16 12 12 13 13 14 15 16 16 16 15 15 17 19 21 22
17 17 16 16 15 15 17 20 22 22 22 21 20 19 18 18 16 16 15 13 11 9 7 6 6 6 5 5 5 3 2 1 0 1 2 3 4 5 6 6 6 6 7 9 10 9 9 11 13 13 12 12 11 10 10 12 13 14 14 13 14 15 17 18 19 19 19 19 17 17 17 15 13 13 14 14 14 16 17 18 18 17 17 18 19 20 21
17 17 17 16 15 14 17 20 22 23 23 22 21 20 19 18 17 17 16 15 13 11 10 8 7 7 6 7 6 5 3 2 2 1 2 2 2 3 4 5 5 6 7 8 9 8 8 11 13 13 13 12 12 12 12 12 13 13 13 14 14 14 15 15 16 17 18 17 16 15 15 14 13 14 15 16 17 17 17 17 18 18 19 19 20 20 21
17 17 17 16 15 16 18 20 22 23 24 23 23 21 20 18 18 18 17 16 15 13 11 10 9 7 7 7 7 5 5 5 4 2 1 2 2 3 3 3 4 4 6 7 6 6 6 8 10 12 13 12 12 13 13 14 14 13 13 13 13 14 14 15 15 15 16 15 15 14 14 14 14 14 15 16 18 18 17 16 17 17 18 18 19 20 21
17 17 17 17 17 17 18 19 21 24 24 24 23 22 20 19 19 18 17 17 17 14 12 11 9 7 6 7 7 7 6 6 6 4 3 3 3 2 2 2 3 3 4 5 5 5 6 6 7 8 9 10 10 11 12 14 14 14 13 13 13 14 15 15 15 15 15 14 14 14 14 14 14 13 12 13 15 16 16 16 16 16 16 17 18 19 20
18 17 17 18 18 18 17 19 21 24 25 25 24 23 21 20 19 18 18 19 17 14 13 12 11 9 8 9 9 8 8 8 8 6 5 4 4 3 3 3 3 3 3 4 4 4 5 5 6 6 7 7 6 7 8 10 11 12 13 13 14 15 15 15 15 15 15 15 14 14 14 14 14 13 11 11 13 14 15 15 15 16 16 16 17 18 19
18 18 18 18 18 18 18 19 21 23 25 25 24 23 21 20 18 18 19 20 18 15 14 13 12 11 11 10 10 9 10 10 9 8 7 6 5 5 5 5 4 4 4 5 5 5 5 5 5 5 6 6 6 6 6 7 8 9 10 11 12 13 14 15 15 15 14 14 14 13 13 12 12 11 11 11 12 13 13 14 14 15 15 16 17 18 18
18 17 18 18 18 18 19 19 20 22 24 25 23 22 22 20 18 18 19 20 19 18 16 14 14 13 12 11 11 10 11 11 11 10 9 8 7 7 7 7 6 6 6 6 6 6 6 6 5 5 5 6 6 6 6 7 7 8 8 9 9 10 11 12 13 13 14 14 13 13 12 12 11 11 11 12 12 13 13 13 14 14 15 15 16 17 18
18 17 18 19 19 19 20 19 19 20 22 23 22 22 21 20 20 20 19 19 20 20 19 17 16 14 12 12 13 13 12 12 12 11 11 10 9 8 8 8 8 8 7 7 7 7 6 5 5 5 5 5 5 5 6 7 7 8 8 9 9 9 10 10 11 12 13 13 13 13 13 13 13 13 14 14 14 15 15 15 15 15 15 15 16 16 17
18 17 18 19 18 19 19 19 18 18 20 22 22 21 21 22 22 22 20 19 20 21 21 19 18 15 14 13 14 13 13 13 13 12 11 11 10 9 9 9 9 9 9 8 8 7 6 6 5 5 5 5 5 6 6 6 7 7 8 9 9 10 10 11 11 12 12 13 13 13 14 14 14 15 15 16 16 17 17 17 18 18 18 18 18 18 18
18 17 17 18 18 19 19 18 17 17 19 21 21 21 21 22 23 23 21 21 22 22 21 20 19 18 17 16 15 14 14 15 14 12 12 11 11 11 10 10 10 10 10 10 10 9 7 7 6 6 6 6 6 6 6 6 7 7 8 8 9 9 10 10 11 12 13 13 14 14 15 15 16 16 17 17 18 18 18 19 19 19 19 20 20 20 20
18 17 17 18 18 19 18 18 19 19 20 21 22 23 22 22 21 22 23 24 24 23 22 21 20 19 19 18 17 16 16 15 14 13 12 12 12 12 12 12 11 11 11 12 11 10 9 8 7 7 6 6 6 6 6 6 6 7 7 8 8 9 9 9 10 11 12 13 14 14 15 16 16 17 18 18 19 19 20 20 21 21 21 22 22 22 22
17 17 17 17 18 19 19 20 21 22 21 21 23 24 23 22 22 23 24 24 24 23 23 22 21 20 19 20 19 18 17 16 15 14 14 14 13 13 13 13 12 13 14 13 12 10 9 9 8 7 7 7 7 7 7 7 7 7 7 7 8 8 8 8 9 10 11 11 12 13 14 14 15 16 17 17 18 19 19 20 20 21 22 22 23 23 24
17 16 16 17 18 20 21 22 23 23 22 22 23 24 23 23 25 26 26 25 25 24 23 23 22 21 21 21 20 19 19 19 17 15 14 14 14 14 14 13 14 15 16 15 13 12 11 10 9 8 8 8 8 8 8 8 8 8 8 8 8 8 8 9 9 10 10 11 11 12 13 14 15 15 16 16 17 17 18 18 19 20 20 21 22 23 24
16 16 16 17 18 20 21 23 24 24 22 22 24 26 26 26 27 26 25 26 26 25 24 24 25 24 23 22 20 19 20 21 19 17 16 16 16 15 14 14 16 18 18 15 14 13 13 12 11 10 9 9 9 9 9 8 9 8 8 8 9 8 9 9 9 10 10 10 11 12 13 13 14 16 16 17 17 18 18 18 19 19 19 19 20 20 21
17 16 16 16 18 20 21 23 24 25 24 23 25 28 29 29 28 25 24 25 26 26 26 26 27 26 25 24 23 22 22 22 20 18 17 17 15 14 14 16 19 20 19 17 15 14 14 13 12 11 10 9 10 10 9 9 9 9 9 9 9 9 9 9 9 9 10 10 10 10 11 11 12 13 14 14 15 16 17 17 18 19 19 18 18 18 19
Wind_Direction
358 360 1 3 6 8 8 10 12 14 17 21 25 32 34 33 33 33 36 44 50 53 48 26 20 28 32 28 31 42 63 111 128 134 138 138 143 141 143 151 143 151 172 171 174 184 185 180 174 176 186 188 188 190 191 190 190 194 194 187 180 186 196 210 211 206 203 204 205 204 206 208 209 210 209 207 207 206 209 209 205 211 217 210 213 215 216
358 0 2 4 7 8 8 10 12 11 14 18 20 26 33 35 36 36 36 39 40 33 18 11 19 28 35 40 49 60 78 109 123 129 127 123 138 140 136 144 141 149 172 170 172 182 180 172 170 178 185 187 188 191 192 190 190 191 192 192 188 189 198 208 210 207 200 200 201 201 205 208 210 213 212 208 207 209 211 207 202 211 214 207 210 218 221
356 359 1 3 6 8 7 7 10 10 12 16 18 22 25 29 32 32 32 33 33 33 31 35 46 50 52 58 67 76 78 83 107 123 114 111 134 140 138 145 141 145 171 171 173 181 176 169 170 178 183 184 189 194 193 189 190 189 189 192 193 194 201 207 209 212 211 207 205 203 203 205 208 210 210 207 203 204 210 207 203 209 210 204 202 218 235
353 357 360 2 4 6 6 5 7 10 10 12 15 19 23 26 27 26 25 27 30 34 39 50 64 68 71 74 78 80 75 74 99 119 113 114 132 139 141 143 133 129 163 174 174 176 175 170 170 179 185 186 191 196 193 190 191 188 184 189 193 194 203 209 209 214 217 214 212 210 206 209 212 208 206 210 206 198 202 208 209 211 214 214 205 210 232
350 354 358 1 2 3 4 4 6 9 10 10 11 16 22 25 27 25 24 24 26 27 30 37 48 59 66 69 71 75 78 83 98 110 113 120 127 133 139 141 135 133 154 172 173 175 177 171 167 181 189 190 195 196 191 191 193 189 185 190 194 193 199 207 207 209 214 211 212 216 214 216 219 212 206 211 211 205 203 210 213 214 215 216 213 215 227
348 352 356 360 1 1 2 3 5 8 9 8 7 11 18 24 28 28 26 27 27 27 31 32 34 43 49 55 62 71 76 85 95 100 105 114 120 125 132 135 136 135 143 165 171 175 179 173 171 187 192 194 197 195 190 191 193 191 191 196 197 194 197 202 199 198 202 201 206 218 219 217 217 215 215 216 215 211 210 209 213 218 214 209 213 223 228
346 350 354 358 360 0 1 2 5 9 10 9 5 6 12 18 27 31 29 29 29 31 41 47 46 47 48 55 70 78 80 89 99 98 96 105 113 118 126 131 135 137 141 160 170 176 181 179 182 193 196 196 197 194 192 193 193 193 197 201 201 200 202 200 193 195 198 187 189 206 213 214 213 214 220 222 220 216 212 208 207 217 216 209 212 226 230
344 349 353 356 359 0 1 3 5 8 11 11 9 9 12 14 23 31 33 34 34 36 47 60 74 80 72 77 97 109 103 100 102 100 101 108 109 111 128 135 138 141 145 156 165 177 184 186 191 198 197 195 194 193 193 194 193 194 199 204 205 204 206 202 194 192 187 177 186 204 207 214 216 213 217 220 219 218 215 212 213 218 219 213 212 221 228
343 348 352 355 358 0 2 4 8 10 12 12 12 17 22 19 23 30 34 36 37 42 52 62 74 85 88 97 117 125 114 104 106 109 113 118 116 122 138 138 137 140 143 146 153 168 183 188 195 202 200 195 191 191 195 195 194 196 201 205 206 204 207 206 201 195 186 179 183 201 209 219 220 216 218 219 218 219 218 217 220 224 226 222 220 222 226
341 347 352 354 357 0 3 5 9 12 14 15 15 19 26 27 24 28 33 36 38 43 51 56 63 76 87 100 123 132 119 107 116 120 121 126 129 133 135 133 134 138 139 140 143 150 168 181 189 197 199 195 190 190 196 197 196 199 203 205 204 205 208 209 206 204 198 188 183 191 204 213 216 215 216 219 221 222 221 220 222 226 228 228 227 225 228
338 345 350 353 356 0 3 6 9 12 16 18 18 19 24 27 23 23 28 32 36 42 50 56 60 70 83 98 121 135 126 113 120 123 122 125 128 128 129 127 126 131 141 147 144 143 153 166 176 186 191 191 189 191 194 196 195 199 202 201 201 205 208 209 209 207 203 196 195 203 207 210 216 218 215 217 219 220 221 221 222 225 228 229 229 227 229
334 343 348 352 356 360 4 6 8 12 16 19 19 18 21 25 25 24 26 31 36 42 50 59 64 70 82 96 116 131 132 124 124 124 122 124 124 124 128 131 129 137 155 154 143 138 145 151 164 179 184 185 188 191 193 194 194 196 197 197 202 206 207 208 211 207 203 204 209 214 217 217 221 221 219 218 217 216 219 220 220 224 226 227 228 228 230
330 339 346 351 354 359 4 7 9 12 14 16 18 20 21 26 29 31 34 39 42 43 49 60 69 76 85 97 112 123 129 131 131 128 126 126 127 125 127 137 139 145 156 155 142 132 135 137 147 161 166 173 183 188 192 194 196 196 195 196 203 209 208 210 212 205 202 212 217 218 223 226 225 224 224 225 221 219 220 220 220 222 224 227 227 226 229
325 335 343 349 353 357 3 7 9 12 12 13 18 24 27 31 36 38 43 51 55 52 52 56 67 84 92 97 106 113 122 133 134 132 132 130 128 123 121 132 138 139 149 153 146 138 139 136 132 138 145 162 176 185 191 193 193 195 196 195 201 207 208 212 216 209 205 215 220 220 223 226 226 226 227 227 223 221 223 224 223 223 225 229 230 227 228
318 327 337 346 351 355 1 6 8 10 11 11 17 26 33 38 42 44 46 52 60 61 59 60 65 85 104 106 107 110 119 134 137 135 134 132 126 118 113 120 132 139 145 147 142 145 152 147 134 131 135 148 165 181 189 190 189 190 192 194 199 203 206 210 214 211 210 215 219 221 224 227 227 226 224 222 220 219 223 226 227 226 227 229 231 231 230
309 318 330 341 347 352 358 4 7 9 9 8 12 23 34 39 42 47 48 49 58 63 65 68 68 79 105 117 117 115 120 135 142 138 134 131 125 119 113 115 126 137 144 143 138 147 159 158 150 145 142 146 157 171 181 186 189 190 191 195 198 201 203 205 207 208 212 217 218 219 223 226 227 224 221 221 221 221 224 227 228 230 232 233 234 235 233
298 306 319 333 342 347 354 1 5 7 7 5 7 17 29 35 36 41 45 47 53 58 62 69 73 80 103 121 125 122 120 130 142 144 142 137 131 127 121 118 123 133 142 142 139 152 162 159 155 155 154 156 159 161 170 180 187 192 195 198 201 203 203 203 205 207 211 216 219 219 222 224 222 219 219 221 222 223 226 227 226 228 231 233 235 237 239
289 293 306 322 335 342 349 358 3 5 6 5 6 13 23 27 28 32 39 43 48 52 54 62 73 84 103 122 129 128 123 123 133 146 150 148 145 144 138 129 127 134 146 148 146 157 164 159 153 153 154 156 159 161 169 177 182 190 196 199 202 205 203 203 206 208 210 214 215 216 220 223 220 217 218 220 221 223 225 227 227 227 229 232 233 233 238
284 281 294 308 324 335 343 353 0 2 3 2 0 5 13 17 19 25 32 37 41 47 50 57 69 82 102 124 134 134 133 132 134 142 147 149 153 157 150 144 142 143 151 156 154 157 163 162 158 155 152 152 158 164 171 178 182 188 195 200 203 204 203 205 207 209 210 212 212 213 218 219 217 217 217 216 219 223 223 225 228 229 229 231 231 230 232
286 271 280 294 311 326 335 347 357 360 360 359 356 355 358 0 6 15 21 25 32 41 45 52 62 71 88 116 133 137 139 143 143 143 143 143 150 154 150 148 151 153 157 160 159 161 166 165 163 163 162 161 163 168 173 179 183 189 195 200 204 206 207 209 211 211 214 213 209 211 215 216 216 217 216 215 218 221 221 222 225 227 227 227 228 228 229
292 265 267 279 295 314 325 337 350 357 358 358 356 351 346 349 356 5 10 13 20 31 39 46 55 65 75 94 119 135 141 147 147 142 140 142 147 150 150 149 150 154 162 163 162 167 171 170 170 174 173 171 173 177 181 181 182 188 194 196 201 205 208 212 214 215 219 220 214 210 212 214 214 215 215 216 219 220 220 222 224 227 227 227 226 227 228
299 267 257 266 279 297 314 327 341 354 358 358 356 350 342 344 347 353 2 8 12 21 30 36 43 53 62 73 93 117 132 147 155 151 146 154 157 157 156 157 156 157 164 166 167 173 177 177 178 180 178 178 182 185 186 187 187 189 193 197 201 203 204 211 214 211 212 218 219 215 213 214 216 216 217 218 217 217 219 221 222 225 227 227 226 226 225
302 274 252 255 265 279 298 315 330 346 356 359 358 352 341 337 338 341 353 5 13 20 24 28 35 42 46 55 74 93 106 122 147 161 155 154 162 160 154 162 172 172 170 170 171 176 182 185 186 185 184 186 190 189 187 188 190 193 196 198 200 201 203 207 211 209 208 213 217 216 213 213 215 217 218 219 219 218 219 220 221 223 225 225 225 224 223
300 283 253 247 254 264 279 297 315 329 343 354 359 358 349 336 334 340 349 2 15 28 35 35 41 46 47 56 69 80 96 109 115 143 151 146 157 170 171 183 193 186 180 181 182 183 187 190 191 191 191 193 193 192 190 190 192 196 199 197 196 200 202 201 202 207 211 214 217 218 216 214 215 217 219 221 221 220 220 220 220 221 222 223 224 223 222
294 287 258 243 246 252 263 278 294 311 325 340 354 1 359 350 343 343 345 357 15 30 41 44 45 47 55 73 83 81 90 104 104 121 146 145 166 200 204 201 195 194 196 196 192 191 191 191 191 193 194 193 193 193 195 197 198 199 199 199 200 201 203 202 202 206 211 214 215 218 218 216 216 219 222 223 223 222 221 219 219 219 221 223 224 223 221
288 287 266 243 239 243 250 261 276 292 305 320 343 358 0 358 354 347 340 351 16 27 29 41 41 36 42 66 98 99 85 81 73 64 74 113 200 202 201 195 191 196 203 200 194 195 197 197 198 199 198 196 197 198 200 202 203 202 202 204 206 207 207 207 207 207 212 216 215 215 217 217 218 222 224 225 225 226 224 220 218 218 220 222 225 224 221
281 283 270 246 235 236 241 248 258 270 280 293 322 348 355 358 0 353 343 351 12 19 17 16 14 15 20 35 77 111 100 63 26 10 349 299 233 201 197 197 197 199 201 201 201 201 199 199 201 202 200 200 200 200 202 204 206 208 208 207 209 211 210 209 210 210 213 216 216 216 218 220 221 223 225 225 226 227 226 222 220 219 220 223 225 225 224
275 277 271 251 235 232 234 239 246 255 263 270 286 322 342 353 3 2 352 358 10 15 14 9 2 359 3 8 26 102 133 316 320 321 315 295 272 257 241 224 215 211 208 206 205 204 201 199 200 202 204 206 206 203 202 204 209 213 214 212 213 216 216 215 215 215 216 218 219 219 221 223 223 225 227 226 226 227 227 225 223 222 222 223 224 225 226
271 271 269 255 238 230 229 233 238 244 252 256 261 288 320 338 358 7 0 2 12 14 11 4 355 350 356 3 14 80 135 305 305 308 309 302 289 288 293 281 239 217 214 212 209 206 204 202 200 203 206 210 211 208 205 207 212 214 214 215 217 218 220 221 219 216 216 218 219 220 221 222 222 225 228 228 227 227 228 228 226 224 224 224 224 224 225
268 266 265 257 241 230 226 228 230 234 242 249 251 261 293 317 339 0 5 7 15 17 11 3 356 354 11 26 28 35 355 309 311 310 309 303 293 292 300 301 255 212 210 209 208 208 208 207 207 210 211 211 211 208 206 208 212 212 214 218 220 219 222 225 222 216 215 218 220 221 222 220 220 224 229 230 228 227 228 229 228 225 224 224 225 225 224
266 262 262 258 245 232 226 224 225 227 232 239 243 246 257 286 308 331 350 357 8 16 10 5 4 4 12 22 9 335 311 315 319 317 316 313 304 302 313 329 182 188 191 194 199 206 209 210 212 214 214 213 211 209 208 208 208 209 213 218 221 224 227 226 221 217 218 221 223 224 224 222 222 225 229 232 230 228 227 227 227 225 224 224 225 225 225
264 259 259 258 248 235 226 223 222 223 226 230 234 237 238 246 265 279 301 337 4 6 353 353 3 5 360 2 3 356 349 337 324 318 323 321 313 321 32 81 129 155 165 173 185 196 202 204 207 210 212 212 211 211 210 207 205 208 213 218 224 229 229 223 218 217 220 222 222 220 221 220 220 221 226 228 227 223 221 221 222 222 222 222 223 225 225
263 257 255 256 250 237 227 222 220 219 222 225 228 231 230 225 229 242 252 285 4 350 326 331 344 347 345 358 9 10 7 357 343 354 360 336 253 129 122 133 140 139 148 158 168 180 188 190 191 196 202 205 205 207 207 205 206 213 221 222 225 227 223 218 215 214 214 215 213 209 209 211 213 217 221 223 221 217 215 216 219 220 219 219 220 222 223
262 256 252 253 250 240 229 223 220 217 219 223 225 227 226 220 216 225 232 234 285 329 320 319 324 329 331 343 3 7 13 21 29 33 24 13 132 131 130 143 154 147 147 154 162 173 178 179 180 184 187 188 191 194 198 202 208 215 220 220 219 217 213 207 203 201 201 202 202 203 207 210 210 213 216 218 219 217 214 216 220 221 219 219 220 222 224
260 254 250 249 248 240 230 225 220 216 217 220 222 223 225 222 216 217 224 229 236 288 311 310 312 316 317 322 4 17 16 25 35 35 26 26 71 120 135 151 166 167 162 162 170 180 183 180 179 180 178 177 180 188 198 206 208 210 213 214 211 204 195 189 189 193 196 197 198 204 210 211 209 209 211 213 217 215 210 211 218 220 218 219 221 222 225
259 253 248 247 245 239 232 227 222 217 216 219 220 220 223 224 219 216 218 225 233 248 287 304 305 300 295 298 344 21 10 16 36 54 46 38 50 90 129 156 176 182 177 173 180 189 188 179 174 173 175 179 185 194 206 212 203 195 198 202 199 193 189 188 192 199 202 204 207 214 217 214 216 226 227 220 218 215 209 208 214 216 214 217 220 222 225
258 252 247 245 243 238 233 228 224 220 218 219 219 219 221 222 221 218 218 223 232 240 256 279 286 285 283 284 293 321 327 358 51 91 99 64 58 75 97 127 161 173 173 174 179 182 177 175 176 178 183 188 190 197 206 206 197 192 195 199 197 197 199 203 207 212 216 219 224 229 230 229 236 245 243 234 229 225 221 220 222 221 217 218 221 223 225
258 252 246 243 243 241 234 229 226 223 220 219 218 219 220 221 220 221 221 222 227 233 242 256 268 276 282 284 280 277 282 301 7 118 116 92 77 81 85 92 113 137 153 165 173 175 177 182 188 191 191 192 192 192 193 192 192 195 200 201 199 202 207 212 216 221 227 230 234 238 242 245 247 248 247 245 241 237 233 231 231 230 228 226 225 224 226
257 251 246 244 243 238 231 227 225 224 222 220 219 219 220 220 220 222 223 223 224 228 235 244 254 264 273 275 271 269 269 269 262 201 143 125 110 104 101 94 94 106 125 143 157 169 182 193 199 201 199 197 195 193 191 190 191 194 198 199 198 199 203 210 217 222 227 230 231 235 240 243 244 248 250 248 244 241 238 234 232 231 231 232 231 231 231
256 251 246 242 239 235 231 228 225 224 223 222 220 219 219 219 220 221 223 225 225 225 229 238 248 257 268 270 266 264 267 266 259 245 215 188 161 134 123 118 112 110 115 122 130 144 163 179 190 196 198 200 200 199 199 198 197 198 201 202 202 201 204 210 215 220 224 227 229 232 235 237 241 249 252 243 236 234 233 231 230 232 234 235 237 237 237
256 251 245 240 237 236 234 229 225 224 225 224 222 220 220 220 220 219 221 225 226 224 225 231 238 245 257 265 264 261 262 264 261 251 239 226 209 188 166 150 143 136 132 130 133 139 142 144 150 163 177 189 198 202 203 202 202 204 207 207 207 208 210 213 217 222 225 228 231 234 236 237 240 245 244 232 223 222 224 226 229 233 236 238 239 239 238
255 250 244 239 237 236 234 229 225 224 225 225 223 221 220 221 220 219 221 225 226 222 222 226 230 232 239 250 255 253 251 255 257 252 242 232 226 223 213 192 179 181 178 170 165 163 157 149 145 150 162 173 181 186 190 192 195 199 205 209 212 213 213 214 217 220 223 226 228 230 231 234 235 236 232 224 219 220 224 227 229 232 235 236 238 239 238
254 250 243 238 236 235 233 229 226 224 224 225 224 223 221 222 222 221 223 226 225 221 220 224 226 229 234 240 244 243 243 245 249 252 247 237 228 226 225 219 209 205 203 197 192 190 183 175 173 176 177 178 177 174 170 173 181 188 196 202 207 210 211 212 212 213 215 217 220 221 222 225 227 227 226 225 225 226 229 231 232 234 234 234 235 237 238
254 250 243 238 235 234 233 231 229 226 224 224 225 224 223 223 224 224 224 226 224 219 218 221 223 225 230 235 236 236 237 239 241 244 244 240 233 228 228 227 223 221 218 214 209 206 199 191 190 194 193 190 190 188 184 184 189 193 196 199 201 204 206 208 209 210 213 215 217 219 221 222 224 225 226 227 228 230 231 233 235 236 235 235 234 235 237
254 250 243 238 234 233 233 233 231 227 225 224 225 225 223 223 225 225 223 223 222 218 215 217 220 220 223 231 235 235 235 236 237 238 239 238 236 232 230 229 228 227 227 226 224 219 213 207 207 210 211 212 215 212 206 203 204 206 209 210 209 209 210 211 213 216 220 222 224 226 228 229 231 231 231 231 232 234 235 237 238 238 238 238 237 237 238
253 250 244 238 234 232 233 232 229 225 223 222 223 225 224 224 226 226 223 221 221 219 215 215 217 217 218 225 232 235 233 233 233 234 235 236 235 234 232 231 230 229 229 230 231 229 225 222 224 228 232 235 238 239 237 232 226 225 226 226 224 222 222 223 224 226 228 230 232 234 235 236 237 238 238 238 238 238 239 240 241 241 241 241 240 240 239
253 250 245 239 234 232 232 230 225 221 220 219 220 222 224 224 226 228 226 223 222 219 216 214 215 215 216 222 229 233 233 231 230 230 232 234 234 234 234 232 231 231 231 231 230 231 230 232 235 239 243 245 246 248 250 250 247 244 242 242 240 238 237 236 237 239 239 240 241 242 243 243 243 243 244 244 244 244 244 244 244 244 244 244 243 243 242
252 250 245 239 234 231 229 225 220 218 217 217 216 219 221 223 224 228 229 227 224 220 217 215 214 214 215 218 225 232 236 236 233 231 232 233 232 232 234 234 232 231 232 232 231 231 234 238 241 244 246 248 249 249 250 250 250 249 249 249 248 247 246 245 246 247 248 248 249 250 250 251 251 250 250 250 249 249 248 247 247 246 246 246 246 246 246
251 250 245 239 234 229 225 222 219 216 214 215 216 219 221 222 223 225 228 228 225 222 219 217 216 216 216 217 221 227 233 235 232 229 230 232 231 231 233 235 235 234 234 233 231 232 237 241 243 245 249 251 251 251 250 249 248 248 250 250 250 250 251 251 252 253 254 255 256 256 257 258 258 258 257 257 256 255 254 253 253 252 250 249 249 248 248
249 249 245 239 233 228 224 221 219 215 213 215 216 216 218 222 223 223 225 226 225 223 221 219 217 218 218 219 221 225 231 233 232 228 229 232 232 231 232 234 236 237 237 235 232 234 238 241 243 245 248 250 252 253 254 253 252 252 253 253 254 255 257 258 261 263 265 266 268 268 268 269 268 268 267 266 265 263 262 261 260 259 257 256 255 253 252
247 248 245 240 235 230 226 224 221 218 215 216 215 214 216 221 223 222 222 224 223 221 220 219 218 218 219 219 219 222 227 231 230 228 228 230 231 231 233 235 238 239 238 234 231 234 238 240 243 246 248 250 253 255 256 257 258 257 257 259 260 262 264 266 269 272 275 277 278 278 278 277 276 275 274 272 271 269 267 265 265 264 263 262 260 259 257
246 248 246 242 237 232 228 227 225 221 217 217 218 218 220 225 225 222 221 222 222 220 220 220 219 219 219 219 218 220 225 228 229 230 232 233 232 230 232 235 238 239 238 235 232 235 239 241 242 245 247 249 253 255 257 259 260 260 260 261 263 264 267 269 273 276 279 280 281 281 280 279 278 277 277 276 275 273 271 268 267 266 266 265 264 263 262
Height
5601 5598 5594 5590 5586 5582 5578 5575 5571 5568 5564 5561 5557 5553 5551 5548 5545 5543 5541 5538 5536 5533 5531 5529 5528 5526 5524 5524 5524 5524 5524 5524 5523 5523 5524 5526 5528 5529 5532 5534 5536 5538 5541 5544 5549 5555 5559 5563 5567 5571 5575 5581 5587 5592 5597 5603 5609 5615 5622 5626 5630 5634 5636 5638 5642 5647 5652 5655 5660 5665 5668 5672 5675 5677 5682 5687 5691 5694 5697 5701 5707 5709 5711 5714 5716 5718 5720
5601 5598 5595 5591 5587 5583 5580 5576 5573 5570 5567 5563 5560 5557 5554 5551 5549 5547 5545 5542 5540 5537 5535 5533 5531 5529 5528 5528 5527 5527 5527 5527 5527 5528 5529 5530 5531 5533 5535 5538 5539 5540 5543 5546 5550 5555 5560 5564 5568 5572 5577 5582 5587 5590 5595 5602 5608 5614 5621 5625 5629 5632 5634 5636 5640 5644 5649 5652 5656 5660 5663 5667 5670 5674 5679 5685 5690 5693 5696 5700 5705 5707 5709 5711 5714 5715 5715
5602 5599 5596 5592 5588 5585 5581 5578 5575 5572 5569 5565 5563 5560 5557 5554 5552 5549 5547 5545 5543 5541 5538 5536 5534 5533 5532 5531 5530 5530 5530 5531 5531 5532 5532 5534 5535 5536 5538 5540 5541 5543 5546 5549 5551 5557 5562 5565 5569 5574 5578 5583 5586 5589 5594 5602 5608 5614 5621 5625 5628 5631 5633 5635 5639 5642 5646 5649 5651 5654 5658 5662 5666 5671 5676 5681 5686 5690 5694 5697 5700 5702 5704 5708 5712 5714 5713
5602 5599 5596 5593 5589 5585 5582 5579 5576 5573 5570 5567 5564 5562 5559 5556 5554 5552 5550 5548 5546 5544 5542 5540 5538 5536 5535 5534 5534 5533 5533 5535 5535 5535 5536 5537 5538 5539 5541 5543 5544 5546 5549 5551 5554 5559 5563 5567 5571 5575 5578 5582 5585 5588 5595 5602 5607 5612 5618 5621 5625 5629 5632 5635 5639 5643 5648 5652 5653 5656 5659 5662 5666 5670 5674 5678 5682 5687 5691 5693 5695 5699 5702 5705 5709 5712 5710
5602 5600 5597 5594 5590 5586 5583 5580 5576 5573 5571 5568 5566 5563 5561 5558 5556 5554 5552 5550 5548 5547 5545 5544 5542 5540 5538 5538 5538 5537 5537 5538 5538 5539 5539 5540 5540 5542 5544 5545 5547 5548 5551 5554 5557 5561 5565 5569 5573 5575 5579 5582 5584 5589 5596 5601 5606 5611 5615 5617 5621 5626 5630 5634 5639 5644 5649 5652 5653 5656 5660 5664 5667 5670 5673 5675 5679 5683 5687 5690 5693 5697 5699 5702 5706 5708 5706
5603 5600 5598 5594 5591 5587 5584 5580 5577 5574 5571 5569 5567 5565 5562 5560 5558 5556 5554 5552 5551 5549 5548 5546 5545 5543 5542 5542 5542 5541 5541 5542 5542 5542 5542 5543 5544 5545 5546 5548 5549 5551 5554 5556 5559 5563 5567 5571 5574 5576 5579 5582 5585 5591 5597 5601 5605 5610 5613 5616 5621 5625 5629 5633 5639 5645 5649 5651 5653 5656 5659 5662 5665 5668 5670 5672 5677 5681 5684 5688 5692 5694 5695 5699 5703 5704 5704
5603 5601 5598 5595 5592 5588 5585 5581 5577 5574 5572 5569 5567 5565 5564 5562 5560 5558 5556 5554 5553 5551 5549 5548 5547 5546 5546 5545 5545 5544 5544 5545 5545 5544 5545 5547 5548 5549 5549 5551 5552 5553 5556 5559 5561 5565 5568 5571 5574 5576 5579 5583 5587 5592 5596 5600 5605 5609 5612 5616 5620 5624 5628 5633 5638 5643 5646 5650 5654 5656 5657 5659 5662 5665 5667 5670 5675 5679 5682 5685 5689 5690 5692 5697 5700 5699 5701
5603 5601 5599 5596 5593 5590 5586 5582 5578 5575 5573 5570 5568 5566 5565 5563 5561 5560 5558 5556 5555 5553 5552 5550 5550 5549 5548 5547 5547 5547 5546 5547 5547 5547 5548 5549 5551 5553 5553 5553 5554 5556 5558 5561 5564 5566 5569 5572 5574 5576 5580 5584 5589 5593 5596 5599 5604 5608 5611 5614 5618 5623 5628 5632 5637 5642 5644 5648 5653 5655 5655 5656 5659 5662 5664 5667 5671 5675 5678 5681 5684 5686 5689 5694 5696 5696 5698
5603 5601 5599 5596 5594 5591 5587 5584 5580 5577 5574 5572 5569 5567 5565 5564 5563 5561 5560 5558 5557 5555 5554 5553 5552 5551 5550 5549 5549 5549 5549 5549 5549 5549 5550 5551 5553 5554 5555 5555 5556 5558 5561 5563 5566 5569 5571 5573 5576 5579 5582 5586 5589 5593 5595 5599 5604 5607 5609 5612 5618 5624 5629 5632 5635 5639 5642 5645 5649 5653 5654 5655 5657 5659 5661 5664 5667 5671 5674 5678 5681 5683 5686 5690 5692 5695 5697
5603 5602 5599 5597 5594 5592 5588 5585 5582 5579 5576 5574 5571 5568 5566 5565 5564 5563 5562 5561 5559 5558 5557 5556 5555 5553 5552 5552 5552 5552 5552 5552 5552 5552 5552 5554 5554 5555 5556 5557 5559 5561 5563 5566 5569 5571 5572 5575 5578 5581 5584 5586 5589 5592 5595 5599 5604 5608 5610 5614 5620 5624 5626 5630 5633 5636 5639 5642 5646 5649 5650 5652 5654 5656 5659 5662 5665 5668 5671 5675 5678 5680 5683 5686 5690 5695 5696
5603 5602 5600 5598 5595 5592 5589 5586 5583 5580 5578 5576 5573 5571 5568 5566 5565 5564 5564 5563 5562 5560 5559 5558 5557 5556 5554 5554 5554 5555 5555 5555 5555 5555 5555 5556 5557 5557 5558 5560 5562 5564 5566 5568 5570 5572 5574 5577 5579 5581 5583 5586 5589 5592 5595 5600 5605 5608 5611 5616 5619 5621 5624 5628 5631 5634 5638 5641 5643 5644 5645 5648 5650 5652 5656 5660 5663 5665 5668 5671 5674 5676 5679 5683 5687 5691 5691
5603 5602 5600 5598 5596 5593 5591 5588 5585 5582 5579 5577 5575 5572 5570 5568 5566 5565 5565 5564 5563 5562 5561 5560 5560 5558 5557 5557 5557 5557 5557 5557 5558 5558 5558 5559 5559 5560 5561 5562 5564 5566 5567 5569 5571 5574 5576 5579 5580 5581 5583 5586 5589 5593 5596 5600 5604 5607 5611 5615 5618 5619 5623 5627 5630 5633 5636 5638 5639 5641 5643 5646 5648 5651 5654 5656 5659 5661 5664 5667 5671 5673 5676 5678 5682 5686 5687
5603 5602 5600 5599 5597 5594 5592 5589 5586 5583 5581 5579 5576 5574 5571 5569 5568 5566 5565 5565 5565 5564 5563 5562 5561 5561 5560 5560 5559 5560 5560 5560 5560 5560 5561 5561 5562 5563 5564 5564 5565 5566 5568 5570 5573 5575 5578 5580 5581 5582 5584 5586 5589 5593 5596 5600 5603 5606 5610 5614 5616 5619 5623 5626 5628 5632 5634 5635 5637 5640 5642 5644 5647 5650 5652 5654 5656 5659 5661 5663 5666 5669 5672 5674 5677 5682 5684
5603 5602 5601 5599 5597 5595 5593 5590 5588 5585 5582 5580 5578 5576 5573 5571 5569 5568 5567 5566 5566 5565 5564 5564 5563 5563 5563 5562 5562 5562 5562 5562 5562 5562 5563 5564 5565 5565 5566 5567 5567 5569 5570 5572 5574 5576 5578 5581 5582 5584 5586 5588 5590 5593 5596 5599 5603 5606 5609 5613 5615 5618 5622 5624 5627 5630 5633 5634 5636 5639 5641 5642 5645 5647 5650 5652 5655 5657 5659 5661 5663 5666 5669 5671 5674 5678 5681
5602 5602 5601 5599 5598 5596 5594 5591 5589 5587 5584 5582 5580 5578 5576 5573 5571 5570 5568 5568 5567 5566 5566 5565 5565 5564 5564 5564 5564 5563 5563 5563 5564 5565 5565 5566 5567 5568 5568 5569 5570 5571 5573 5575 5577 5578 5579 5581 5584 5586 5589 5591 5592 5594 5596 5599 5602 5605 5608 5611 5614 5617 5620 5623 5626 5629 5631 5632 5634 5637 5638 5640 5643 5646 5648 5650 5652 5654 5656 5658 5660 5663 5667 5669 5671 5675 5678
5602 5601 5600 5599 5598 5596 5595 5593 5590 5588 5586 5584 5582 5580 5578 5576 5574 5572 5571 5569 5569 5568 5567 5567 5566 5566 5566 5566 5566 5565 5565 5565 5566 5566 5567 5569 5570 5571 5571 5572 5572 5574 5575 5577 5579 5580 5582 5583 5585 5588 5590 5592 5594 5595 5597 5599 5602 5605 5608 5610 5613 5616 5618 5621 5624 5627 5629 5631 5633 5635 5637 5639 5641 5643 5646 5648 5649 5651 5653 5656 5658 5661 5664 5667 5669 5672 5675
5601 5601 5600 5599 5598 5597 5595 5593 5591 5589 5587 5586 5584 5582 5580 5578 5576 5575 5573 5572 5570 5570 5569 5568 5568 5568 5567 5567 5568 5567 5567 5567 5568 5568 5569 5570 5571 5572 5573 5574 5575 5576 5577 5578 5580 5582 5583 5585 5587 5588 5591 5593 5595 5596 5598 5600 5603 5605 5607 5610 5612 5614 5617 5620 5622 5625 5627 5629 5631 5633 5635 5637 5639 5641 5644 5645 5647 5649 5651 5653 5656 5659 5661 5663 5666 5669 5672
5600 5600 5599 5599 5598 5597 5596 5594 5592 5590 5589 5587 5585 5584 5582 5580 5579 5577 5575 5574 5572 5571 5570 5570 5569 5569 5569 5569 5569 5569 5569 5569 5570 5570 5570 5571 5572 5573 5574 5575 5576 5577 5578 5579 5581 5582 5584 5586 5587 5589 5591 5593 5595 5597 5599 5601 5603 5606 5608 5610 5612 5614 5616 5619 5621 5623 5625 5627 5629 5632 5633 5635 5638 5640 5642 5643 5645 5647 5649 5650 5653 5656 5657 5659 5663 5666 5669
5600 5599 5599 5598 5598 5597 5596 5594 5593 5591 5590 5588 5586 5585 5584 5582 5581 5579 5577 5576 5575 5573 5572 5572 5571 5571 5571 5571 5571 5571 5571 5571 5571 5572 5572 5573 5573 5574 5575 5576 5578 5579 5580 5581 5582 5583 5585 5586 5588 5590 5592 5594 5595 5597 5599 5601 5604 5606 5608 5609 5611 5613 5615 5617 5619 5622 5624 5626 5628 5630 5632 5634 5636 5638 5639 5641 5643 5644 5646 5648 5650 5652 5655 5657 5660 5663 5666
5599 5598 5598 5598 5597 5597 5596 5595 5593 5592 5590 5589 5587 5586 5585 5584 5582 5581 5579 5578 5577 5576 5575 5574 5573 5572 5572 5572 5572 5572 5573 5573 5573 5573 5574 5575 5575 5575 5576 5577 5579 5580 5581 5582 5583 5584 5586 5587 5589 5591 5593 5594 5596 5598 5600 5601 5603 5605 5607 5609 5611 5613 5615 5617 5619 5621 5623 5624 5627 5629 5630 5632 5634 5636 5637 5639 5640 5642 5644 5646 5647 5649 5652 5654 5657 5660 5662
5597 5597 5597 5597 5597 5596 5595 5594 5594 5592 5591 5589 5588 5586 5585 5584 5583 5582 5581 5580 5578 5578 5577 5576 5575 5574 5574 5574 5574 5574 5574 5575 5575 5575 5576 5576 5576 5577 5578 5578 5579 5580 5581 5582 5583 5585 5586 5588 5589 5591 5592 5594 5596 5598 5600 5601 5603 5605 5606 5608 5610 5612 5614 5616 5619 5621 5622 5623 5624 5626 5628 5631 5632 5634 5635 5637 5638 5641 5642 5644 5645 5647 5649 5651 5654 5657 5659
5596 5596 5596 5596 5596 5596 5595 5594 5594 5592 5591 5590 5588 5587 5586 5585 5584 5583 5582 5581 5580 5579 5578 5577 5577 5576 5576 5575 5575 5575 5576 5576 5576 5577 5577 5577 5578 5578 5579 5579 5580 5581 5582 5583 5584 5585 5587 5588 5589 5591 5592 5594 5596 5598 5600 5601 5603 5604 5606 5607 5609 5611 5613 5615 5617 5619 5620 5621 5622 5624 5627 5629 5630 5632 5634 5635 5637 5638 5639 5641 5643 5644 5646 5649 5651 5653 5655
5595 5594 5594 5594 5595 5595 5595 5594 5593 5593 5591 5590 5589 5587 5586 5585 5585 5584 5583 5582 5581 5580 5580 5579 5578 5578 5577 5577 5577 5577 5577 5577 5577 5578 5578 5578 5579 5579 5580 5580 5581 5581 5582 5583 5584 5585 5586 5588 5589 5591 5593 5594 5595 5597 5599 5601 5603 5604 5605 5607 5608 5610 5612 5613 5615 5617 5618 5619 5620 5622 5625 5627 5629 5631 5632 5633 5635 5636 5637 5639 5640 5642 5644 5646 5648 5650 5652
5593 5593 5593 5593 5593 5594 5594 5593 5593 5592 5592 5591 5589 5588 5587 5586 5585 5584 5584 5583 5582 5581 5581 5581 5580 5579 5579 5578 5578 5578 5578 5578 5578 5579 5579 5579 5580 5580 5580 5580 5581 5582 5583 5583 5584 5585 5586 5587 5588 5590 5592 5593 5595 5597 5599 5600 5601 5603 5604 5606 5608 5609 5611 5613 5614 5616 5617 5618 5619 5621 5623 5625 5627 5629 5630 5631 5633 5634 5635 5637 5639 5640 5642 5644 5646 5648 5649
5592 5591 5591 5591 5592 5592 5593 5593 5592 5592 5592 5591 5590 5589 5587 5586 5585 5585 5584 5583 5583 5582 5582 5582 5581 5581 5580 5579 5579 5579 5579 5579 5580 5580 5580 5580 5580 5580 5580 5581 5581 5582 5583 5583 5584 5585 5586 5587 5588 5589 5591 5592 5594 5596 5597 5599 5599 5601 5603 5605 5606 5608 5610 5612 5613 5614 5616 5617 5618 5619 5621 5624 5625 5626 5628 5629 5631 5632 5633 5635 5637 5638 5640 5641 5643 5645 5647
5590 5590 5590 5590 5590 5590 5591 5592 5592 5592 5591 5591 5590 5589 5588 5586 5586 5585 5584 5584 5583 5583 5582 5582 5582 5582 5581 5581 5580 5580 5580 5580 5581 5581 5581 5581 5580 5580 5580 5581 5582 5582 5583 5583 5584 5585 5586 5587 5588 5589 5590 5592 5593 5594 5596 5597 5598 5600 5601 5603 5605 5607 5609 5610 5612 5613 5615 5615 5616 5618 5620 5622 5623 5624 5625 5627 5629 5630 5632 5634 5635 5637 5638 5639 5641 5643 5644
5589 5588 5588 5588 5588 5589 5589 5590 5590 5591 5591 5590 5590 5589 5588 5587 5586 5585 5585 5584 5583 5583 5582 5582 5582 5582 5582 5582 5581 5581 5581 5581 5581 5581 5581 5581 5580 5580 5580 5581 5581 5582 5582 5583 5584 5585 5586 5587 5588 5589 5590 5591 5592 5593 5594 5596 5597 5599 5600 5602 5604 5606 5607 5608 5610 5611 5612 5613 5614 5616 5618 5619 5620 5622 5623 5625 5626 5628 5630 5632 5634 5635 5637 5637 5639 5641 5643
5587 5586 5586 5586 5586 5587 5587 5588 5589 5589 5590 5590 5589 5589 5589 5588 5587 5586 5585 5584 5584 5583 5583 5583 5582 5582 5582 5582 5581 5581 5581 5581 5581 5581 5581 5581 5580 5580 5580 5580 5581 5581 5582 5583 5583 5584 5585 5586 5587 5588 5589 5590 5591 5592 5593 5595 5596 5598 5599 5601 5603 5604 5605 5606 5608 5609 5610 5612 5614 5615 5615 5617 5618 5619 5620 5622 5623 5626 5628 5630 5632 5634 5635 5636 5638 5640 5641
5585 5584 5584 5584 5584 5585 5585 5586 5587 5588 5588 5588 5589 5589 5589 5588 5587 5586 5585 5585 5584 5584 5583 5583 5583 5582 5582 5581 5581 5581 5581 5581 5581 5581 5580 5580 5580 5579 5579 5579 5578 5579 5580 5581 5582 5583 5584 5585 5587 5588 5589 5590 5590 5591 5592 5594 5595 5597 5598 5600 5601 5602 5604 5605 5606 5608 5609 5610 5611 5612 5613 5615 5616 5617 5618 5620 5622 5624 5625 5627 5630 5631 5633 5635 5637 5638 5640
5582 5582 5582 5582 5582 5583 5583 5584 5585 5586 5587 5587 5587 5588 5588 5588 5587 5587 5586 5585 5585 5584 5584 5583 5583 5582 5582 5581 5581 5581 5582 5581 5581 5581 5580 5579 5579 5578 5577 5577 5576 5577 5577 5579 5581 5582 5583 5585 5586 5587 5588 5589 5590 5590 5591 5593 5594 5596 5597 5598 5599 5601 5602 5603 5605 5606 5607 5608 5609 5610 5611 5613 5614 5616 5617 5618 5620 5621 5623 5625 5627 5629 5631 5633 5635 5636 5638
5580 5580 5580 5580 5580 5581 5581 5582 5583 5584 5585 5586 5586 5587 5587 5587 5587 5586 5586 5585 5585 5585 5584 5584 5583 5583 5582 5582 5581 5581 5581 5581 5581 5580 5579 5579 5578 5578 5577 5576 5576 5576 5577 5578 5580 5581 5582 5584 5585 5586 5587 5588 5589 5590 5591 5592 5593 5595 5596 5597 5598 5600 5601 5602 5603 5604 5606 5607 5608 5610 5610 5612 5614 5615 5616 5617 5618 5620 5621 5623 5625 5627 5629 5631 5632 5634 5636
5578 5578 5578 5578 5578 5579 5580 5580 5581 5582 5583 5584 5585 5586 5586 5587 5587 5586 5586 5585 5585 5585 5584 5584 5584 5583 5583 5582 5582 5581 5581 5581 5580 5580 5579 5579 5578 5577 5577 5577 5577 5577 5577 5578 5580 5581 5582 5583 5584 5585 5586 5587 5588 5589 5590 5591 5593 5594 5595 5597 5598 5598 5599 5600 5601 5603 5605 5606 5608 5610 5611 5612 5613 5614 5615 5615 5616 5618 5620 5622 5623 5625 5627 5629 5630 5631 5633
5575 5576 5576 5576 5576 5577 5578 5578 5579 5580 5581 5582 5583 5584 5585 5586 5586 5586 5586 5585 5585 5584 5584 5584 5584 5584 5583 5582 5582 5582 5581 5581 5580 5580 5580 5579 5578 5578 5578 5578 5578 5579 5579 5579 5580 5581 5582 5583 5584 5584 5585 5586 5588 5589 5590 5591 5593 5594 5594 5595 5596 5596 5597 5599 5600 5602 5604 5606 5608 5610 5611 5611 5612 5613 5614 5614 5615 5617 5619 5621 5622 5623 5625 5627 5628 5629 5631
5573 5573 5573 5574 5574 5574 5575 5576 5577 5578 5579 5580 5581 5582 5584 5585 5585 5586 5586 5585 5585 5584 5584 5584 5584 5584 5583 5582 5582 5582 5582 5581 5581 5580 5580 5579 5578 5578 5579 5579 5580 5580 5580 5581 5581 5582 5582 5583 5584 5584 5585 5586 5588 5589 5590 5591 5592 5593 5593 5594 5595 5595 5596 5598 5599 5602 5604 5606 5608 5609 5610 5610 5611 5612 5613 5614 5615 5616 5618 5619 5620 5621 5623 5625 5626 5628 5629
5570 5571 5571 5571 5572 5572 5573 5574 5575 5576 5577 5578 5579 5580 5582 5583 5584 5585 5585 5585 5584 5584 5584 5584 5584 5584 5583 5583 5582 5582 5582 5582 5581 5581 5580 5579 5579 5578 5579 5580 5580 5580 5581 5581 5582 5582 5582 5583 5584 5585 5586 5587 5588 5590 5590 5591 5592 5592 5593 5593 5594 5595 5596 5598 5600 5602 5604 5606 5607 5608 5609 5609 5610 5611 5612 5613 5614 5615 5616 5618 5619 5620 5622 5623 5625 5626 5628
5567 5568 5568 5569 5569 5570 5570 5571 5572 5574 5575 5576 5577 5579 5580 5581 5582 5583 5584 5584 5584 5584 5584 5583 5583 5583 5583 5583 5583 5583 5583 5583 5582 5582 5581 5580 5579 5579 5579 5580 5580 5581 5581 5581 5582 5582 5582 5583 5584 5585 5586 5587 5588 5589 5590 5590 5591 5592 5593 5594 5595 5596 5597 5599 5600 5602 5603 5605 5606 5607 5607 5609 5610 5611 5612 5612 5613 5614 5615 5617 5617 5619 5620 5622 5623 5624 5626
5565 5565 5566 5566 5567 5567 5568 5569 5570 5572 5573 5574 5575 5577 5578 5579 5580 5582 5583 5583 5583 5583 5583 5583 5583 5583 5583 5582 5582 5583 5583 5583 5583 5583 5582 5581 5580 5580 5580 5580 5581 5581 5581 5581 5582 5582 5583 5583 5584 5586 5587 5587 5588 5589 5589 5590 5591 5592 5593 5594 5595 5596 5598 5599 5600 5602 5603 5604 5605 5606 5607 5608 5610 5610 5610 5611 5612 5613 5614 5615 5616 5618 5619 5620 5621 5623 5624
5562 5562 5563 5564 5564 5565 5566 5567 5568 5570 5571 5572 5573 5574 5575 5577 5578 5580 5581 5582 5582 5583 5583 5583 5582 5582 5582 5582 5582 5582 5582 5583 5583 5583 5583 5582 5582 5581 5581 5581 5581 5581 5581 5582 5582 5582 5583 5584 5584 5585 5586 5587 5588 5588 5589 5590 5591 5591 5592 5593 5595 5596 5598 5599 5600 5601 5602 5603 5605 5605 5606 5607 5609 5609 5609 5610 5611 5612 5613 5614 5615 5616 5618 5619 5620 5621 5622
5559 5560 5560 5561 5562 5563 5564 5565 5566 5567 5568 5570 5571 5572 5573 5575 5576 5578 5579 5580 5581 5582 5582 5582 5582 5582 5582 5582 5581 5581 5582 5582 5582 5583 5583 5583 5583 5582 5582 5582 5582 5582 5582 5582 5582 5583 5583 5584 5584 5585 5586 5587 5588 5588 5589 5589 5590 5591 5592 5593 5594 5596 5597 5598 5600 5601 5601 5603 5604 5605 5605 5606 5607 5608 5608 5609 5609 5610 5612 5613 5614 5615 5616 5617 5618 5619 5620
5557 5557 5558 5559 5560 5561 5561 5562 5563 5564 5566 5567 5569 5570 5571 5573 5574 5575 5577 5578 5579 5580 5581 5581 5581 5581 5581 5581 5581 5581 5581 5582 5582 5582 5583 5583 5583 5583 5583 5583 5583 5583 5583 5583 5583 5583 5583 5583 5584 5585 5585 5586 5587 5587 5588 5589 5590 5591 5592 5593 5594 5595 5596 5597 5598 5599 5601 5602 5603 5604 5605 5605 5606 5606 5607 5607 5608 5609 5610 5611 5612 5613 5614 5615 5616 5617 5618
5554 5554 5555 5556 5557 5558 5559 5560 5561 5562 5563 5565 5566 5568 5570 5571 5572 5574 5575 5576 5577 5579 5580 5580 5580 5580 5580 5580 5580 5580 5581 5581 5581 5582 5582 5583 5583 5583 5583 5583 5583 5583 5583 5583 5583 5584 5584 5584 5584 5584 5585 5586 5586 5587 5588 5588 5589 5590 5591 5592 5593 5594 5595 5596 5597 5598 5600 5601 5602 5603 5604 5604 5605 5605 5605 5606 5606 5608 5609 5610 5611 5612 5613 5614 5614 5615 5616
5551 5552 5552 5553 5554 5555 5556 5557 5558 5560 5561 5562 5564 5566 5568 5569 5570 5572 5573 5574 5575 5577 5578 5578 5579 5579 5579 5579 5580 5580 5580 5580 5581 5581 5582 5582 5582 5583 5583 5583 5583 5583 5584 5584 5584 5584 5584 5584 5584 5585 5585 5586 5586 5587 5587 5588 5589 5590 5591 5591 5592 5593 5594 5595 5596 5597 5599 5600 5601 5601 5602 5603 5603 5604 5604 5605 5606 5607 5607 5608 5609 5610 5611 5612 5613 5613 5614
5549 5549 5550 5551 5552 5553 5554 5555 5556 5557 5558 5560 5562 5564 5566 5567 5569 5570 5571 5572 5574 5575 5576 5576 5577 5578 5578 5578 5579 5579 5579 5580 5580 5580 5581 5581 5582 5582 5582 5583 5583 5583 5584 5584 5584 5584 5584 5585 5585 5585 5586 5586 5586 5587 5587 5588 5589 5590 5590 5591 5592 5592 5593 5594 5595 5596 5597 5598 5599 5600 5601 5601 5602 5602 5603 5604 5605 5605 5606 5607 5608 5608 5609 5610 5611 5611 5612
5546 5547 5547 5548 5549 5550 5551 5552 5553 5555 5556 5558 5560 5562 5564 5565 5567 5568 5569 5570 5572 5573 5574 5575 5576 5576 5577 5578 5578 5578 5579 5579 5579 5580 5580 5581 5581 5582 5582 5582 5583 5583 5583 5583 5584 5584 5585 5585 5585 5585 5586 5586 5587 5587 5588 5588 5589 5589 5590 5591 5591 5592 5592 5593 5594 5595 5596 5597 5598 5598 5599 5600 5600 5601 5602 5603 5603 5604 5605 5605 5606 5607 5608 5608 5609 5610 5610
5543 5544 5545 5545 5546 5548 5549 5550 5551 5553 5555 5557 5558 5560 5562 5564 5565 5565 5567 5568 5569 5570 5572 5573 5574 5575 5576 5576 5576 5577 5577 5578 5578 5579 5579 5580 5580 5581 5581 5582 5582 5582 5583 5583 5583 5584 5584 5585 5585 5585 5585 5586 5586 5587 5587 5588 5588 5589 5589 5590 5591 5591 5592 5593 5593 5594 5595 5596 5596 5597 5598 5598 5599 5600 5600 5601 5602 5602 5603 5604 5604 5605 5606 5607 5607 5608 5608
5541 5541 5542 5543 5544 5545 5546 5547 5549 5551 5553 5555 5556 5558 5559 5561 5562 5563 5565 5566 5567 5567 5569 5570 5572 5573 5574 5574 5575 5575 5576 5576 5577 5578 5578 5579 5579 5580 5580 5581 5581 5582 5582 5582 5583 5583 5583 5584 5584 5585 5585 5585 5585 5586 5586 5587 5588 5588 5589 5589 5590 5590 5591 5592 5592 5593 5593 5594 5595 5595 5596 5597 5597 5598 5599 5599 5600 5600 5601 5602 5602 5603 5604 5604 5605 5606 5606
5538 5539 5539 5540 5541 5542 5544 5545 5548 5549 5551 5552 5554 5555 5556 5558 5559 5561 5563 5564 5564 5565 5567 5568 5569 5571 5572 5572 5573 5574 5574 5575 5575 5576 5577 5578 5578 5579 5579 5580 5581 5581 5581 5582 5582 5582 5583 5583 5583 5584 5584 5584 5585 5585 5585 5586 5586 5587 5587 5588 5588 5589 5589 5590 5591 5591 5592 5593 5593 5594 5594 5595 5595 5596 5596 5597 5598 5598 5599 5599 5600 5600 5601 5602 5602 5603 5604
5535 5536 5536 5537 5538 5540 5541 5543 5544 5546 5548 5550 5551 5552 5553 5555 5557 5558 5560 5561 5562 5563 5565 5566 5567 5568 5569 5570 5571 5572 5572 5573 5574 5575 5576 5576 5577 5578 5578 5579 5579 5580 5580 5580 5581 5581 5582 5582 5582 5583 5583 5584 5584 5584 5585 5585 5586 5586 5586 5587 5587 5588 5588 5589 5589 5590 5590 5591 5591 5592 5592 5592 5593 5593 5594 5594 5595 5595 5596 5596 5597 5598 5598 5599 5599 5600 5601
5533 5533 5534 5535 5536 5537 5538 5540 5541 5542 5545 5547 5548 5550 5551 5553 5554 5555 5556 5558 5560 5561 5562 5563 5565 5566 5567 5568 5568 5569 5570 5571 5572 5573 5574 5575 5576 5576 5577 5578 5578 5578 5579 5579 5580 5580 5581 5581 5581 5582 5582 5583 5583 5583 5584 5584 5585 5585 5585 5586 5586 5586 5587 5587 5588 5588 5589 5589 5589 5590 5590 5590 5591 5591 5591 5592 5592 5592 5593 5593 5594 5594 5595 5596 5596 5597 5598
5530 5530 5531 5532 5532 5533 5535 5536 5537 5539 5541 5544 5545 5547 5549 5550 5550 5551 5553 5555 5557 5558 5560 5561 5562 5563 5564 5565 5567 5568 5568 5569 5570 5572 5573 5574 5574 5575 5576 5576 5577 5577 5577 5577 5578 5579 5580 5580 5580 5581 5581 5582 5582 5582 5583 5583 5583 5584 5584 5584 5585 5585 5585 5586 5586 5586 5587 5587 5587 5588 5588 5588 5588 5588 5589 5589 5589 5589 5590 5590 5590 5591 5591 5592 5593 5594 5594
5527 5528 5528 5529 5529 5530 5532 5533 5535 5536 5538 5540 5542 5543 5544 5545 5546 5549 5551 5552 5554 5555 5557 5558 5559 5560 5562 5563 5565 5566 5566 5567 5568 5570 5571 5571 5573 5574 5574 5575 5575 5574 5575 5576 5577 5578 5578 5579 5579 5580 5580 5580 5581 5581 5582 5582 5582 5582 5583 5583 5583 5584 5584 5584 5584 5585 5585 5585 5586 5586 5586 5586 5586 5586 5586 5586 5586 5587 5587 5587 5587 5588 5588 5589 5589 5590 5591
5524 5525 5525 5526 5527 5528 5529 5530 5532 5534 5535 5536 5538 5539 5540 5541 5544 5546 5548 5549 5550 5552 5553 5554 5556 5557 5559 5560 5562 5563 5563 5564 5566 5568 5569 5570 5571 5572 5573 5573 5572 5572 5573 5574 5575 5576 5577 5578 5578 5578 5579 5579 5580 5580 5580 5581 5581 5581 5582 5582 5582 5582 5583 5583 5583 5583 5583 5584 5584 5584 5584 5584 5584 5584 5584 5584 5584 5584 5584 5585 5585 5585 5586 5586 5586 5587 5588